Location: Plymouth
(43.7570°N, 71.6890°W)
Time: 09:32:13
(UTC-04:00)

Amateur Radio Satellites - All Passes

Search period start: 16 August 2017 09:02
Search period end: 17 August 2017 09:02
Location: Plymouth, 43.7570°N, 71.6890°W

Satellite Date Start Highest point End Downlink Frequencies (MHz)
Time Altitude Azimuth
AO-73 16 Aug 09:05:27 09:09:35 51° 100° (E) 09:13:48 145.935
XW-2A 16 Aug 09:15:40 09:18:25 23° 291° (WNW) 09:21:10 145.665 - 145.685
DELFI C3 16 Aug 09:17:47 09:19:20 12° 90° (E) 09:20:51 145.870
SO-50 16 Aug 09:20:36 09:25:11 86° 235° (SW) 09:29:48 436.795
CUBEBUG 2 16 Aug 09:21:10 09:24:51 31° 290° (WNW) 09:28:32 437.445
UWE-3 16 Aug 09:25:05 09:29:06 46° 288° (WNW) 09:33:11 435.000/436.395/437.385
HO-68 16 Aug 09:25:31 09:32:03 40° 297° (WNW) 09:38:34 435.675
SEEDS 16 Aug 09:29:32 09:32:48 22° 294° (WNW) 09:36:04 437.485
UNISAT 6 16 Aug 09:44:10 09:48:33 73° 76° (ENE) 09:52:52 437.425
EO-88 16 Aug 09:44:53 09:46:47 13° 91° (E) 09:48:40 145.990 - 145.960
M-CUBED/EXP-1 PRIME 16 Aug 09:48:29 09:51:40 19° 57° (ENE) 09:54:56 437.505
RS-15 16 Aug 09:53:16 09:58:06 13° 92° (E) 10:02:55 29.354- 29.394
PRISM 16 Aug 09:53:23 09:57:30 67° 74° (ENE) 10:01:40 437.425
FO-29 16 Aug 09:56:57 10:04:31 54° 260° (W) 10:11:33 435.910
Oscar 11 16 Aug 09:57:05 10:01:23 59° 286° (WNW) 10:05:39 .
O/OREOS (USA 219) 16 Aug 09:59:31 10:03:03 23° 102° (ESE) 10:06:36 437.305
Max Valier Satellite 16 Aug 10:11:12 10:14:38 36° 98° (E) 10:18:03 145.860
ZACube-1 16 Aug 10:17:39 10:21:04 24° 293° (WNW) 10:24:32 437.345
TIGRISAT 16 Aug 10:21:04 10:25:19 49° 260° (W) 10:29:31 435.000
AAUSAT CUBESAT 2 16 Aug 10:33:24 10:34:22 11° 300° (WNW) 10:35:20 437.432
NO-84 16 Aug 10:34:45 10:37:49 41° 224° (SW) 10:41:05 435.350 FM
PCSat 16 Aug 10:40:16 10:43:35 17° 256° (WSW) 10:46:53 145.827
AO-73 16 Aug 10:42:53 10:45:27 16° 296° (WNW) 10:48:02 145.935
DUCHIFAT 1 16 Aug 10:45:32 10:47:57 15° 63° (ENE) 10:50:22 145.980
DELFI C3 16 Aug 10:50:31 10:54:27 56° 286° (WNW) 10:58:20 145.870
Tancredo 1 16 Aug 11:03:18 11:05:58 32° 140° (SE) 11:08:38 437.200
SO-50 16 Aug 11:04:31 11:04:54 10° 253° (WSW) 11:05:17 436.795
EO-88 16 Aug 11:17:11 11:20:39 41° 287° (WNW) 11:24:07 145.990 - 145.960
M-CUBED/EXP-1 PRIME 16 Aug 11:21:20 11:25:37 53° 255° (WSW) 11:30:09 437.505
AIST 2D 16 Aug 11:23:29 11:26:56 70° 258° (WSW) 11:30:26 435.315
UNISAT 6 16 Aug 11:24:39 11:25:44 11° 271° (W) 11:26:48 437.425
POLYITAN 1 16 Aug 11:25:06 11:29:09 48° 72° (ENE) 11:33:12 437.675
NANOSAT C BR1 16 Aug 11:25:39 11:29:38 43° 71° (ENE) 11:33:37 145.865
LO-87 16 Aug 11:31:17 11:34:31 32° 97° (E) 11:37:44 145.935 - 145.965
PRISM 16 Aug 11:32:05 11:33:13 11° 270° (W) 11:34:22 437.425
O/OREOS (USA 219) 16 Aug 11:38:08 11:42:15 36° 300° (WNW) 11:46:24 437.305
QB50P2 16 Aug 11:39:41 11:43:53 77° 76° (ENE) 11:48:07 145.880/145.840
EO-79 16 Aug 11:42:21 11:46:33 75° 75° (ENE) 11:50:46 145.935-145.965
ESTCUBE 1 16 Aug 11:44:36 11:48:43 32° 97° (E) 11:52:46 437.505/2401.250
Max Valier Satellite 16 Aug 11:45:48 11:48:11 16° 294° (WNW) 11:50:33 145.860
RS-15 16 Aug 11:55:56 12:07:48 61° 114° (ESE) 12:19:49 29.354- 29.394
VELOX 1 16 Aug 12:16:01 12:18:25 14° 90° (E) 12:20:47 145.980
ISS 16 Aug 12:18:31 12:21:43 52° 142° (SE) 12:24:55 437.550
DUCHIFAT 1 16 Aug 12:19:05 12:23:12 53° 260° (W) 12:27:17 145.980
nSIGHT-1 16 Aug 12:33:33 12:36:48 76° 146° (SE) 12:40:04 .
Oscar 19 16 Aug 12:37:41 12:42:16 34° 67° (ENE) 12:46:54 437.125/150
Tancredo 1 16 Aug 12:38:28 12:41:11 34° 337° (NNW) 12:43:55 437.200
BUGSAT 1 16 Aug 12:40:27 12:44:33 74° 76° (ENE) 12:48:39 437.445
POLYITAN 1 16 Aug 13:02:39 13:05:11 15° 268° (W) 13:07:44 437.675
SPROUT 16 Aug 13:02:47 13:06:58 55° 100° (E) 13:11:07 437.525
NANOSAT C BR1 16 Aug 13:02:47 13:05:33 17° 268° (W) 13:08:18 145.865
LO-87 16 Aug 13:05:26 13:07:42 16° 294° (WNW) 13:09:57 145.935 - 145.965
Gurwin Techsat 1B 16 Aug 13:08:26 13:13:25 43° 69° (ENE) 13:18:25 435.225
50 SAT 16 Aug 13:12:08 13:14:35 18° 94° (E) 13:17:00 437.505
AO-7 16 Aug 13:20:00 13:25:54 22° 49° (NE) 13:31:48 .
ESTCUBE 1 16 Aug 13:21:34 13:25:23 27° 293° (WNW) 13:29:11 437.505/2401.250
ITAMSAT 1 16 Aug 13:48:36 13:50:53 13° 57° (ENE) 13:53:12 435.822/435.867
VELOX 1 16 Aug 13:50:52 13:55:13 57° 287° (WNW) 13:59:33 145.980
ISS 16 Aug 13:55:21 13:58:19 31° 341° (NNW) 14:01:17 437.550
UKube-1 16 Aug 13:58:56 14:02:52 33° 97° (E) 14:06:45 .
RS-15 16 Aug 14:08:53 14:20:46 51° 319° (NW) 14:32:41 29.354- 29.394
DX 1 16 Aug 14:09:23 14:13:44 66° 102° (ESE) 14:18:03 434.975-435.025
nSIGHT-1 16 Aug 14:10:38 14:13:27 26° 345° (NNW) 14:16:16 .
Tancredo 1 16 Aug 14:14:58 14:17:02 17° 357° (N) 14:19:05 437.200
Oscar 19 16 Aug 14:17:01 14:21:34 32° 264° (W) 14:26:10 437.125/150
SPROUT 16 Aug 14:39:59 14:42:24 15° 297° (WNW) 14:44:49 437.525
50 SAT 16 Aug 14:44:25 14:47:15 25° 291° (WNW) 14:50:04 437.505
Gurwin Techsat 1B 16 Aug 14:49:05 14:53:30 26° 266° (W) 14:57:56 435.225
AO-85 16 Aug 14:50:31 14:54:29 37° 49° (NE) 14:58:42 145.980
BEESAT 3 16 Aug 14:53:38 14:57:33 51° 52° (NE) 15:01:24 437.485
BEESAT 2 16 Aug 14:55:41 14:58:55 22° 43° (NE) 15:02:08 435.950
AO-7 16 Aug 15:09:07 15:17:30 83° 69° (ENE) 15:25:54 .
ITAMSAT 1 16 Aug 15:24:20 15:29:33 86° 76° (ENE) 15:34:48 435.822/435.867
YUBILEINY 16 Aug 15:30:14 15:37:32 31° 82° (E) 15:44:49 435.215
ISS 16 Aug 15:32:59 15:35:30 20° 1° (N) 15:38:00 437.550
UKube-1 16 Aug 15:35:14 15:38:43 24° 294° (WNW) 15:42:11 .
BEESAT 16 Aug 15:41:25 15:46:00 45° 99° (E) 15:50:32 436.000
DX 1 16 Aug 15:47:10 15:49:23 14° 299° (WNW) 15:51:35 434.975-435.025
nSIGHT-1 16 Aug 15:48:02 15:50:35 20° 5° (N) 15:53:06 .
Tancredo 1 16 Aug 15:50:28 15:52:58 25° 17° (NNE) 15:55:26 437.200
MOZHAYETS 4 16 Aug 16:10:24 16:15:02 77° 103° (ESE) 16:19:39
ITUPSAT 1 16 Aug 16:12:08 16:16:56 88° 106° (ESE) 16:21:42 437.325
CUBESAT XI-V 16 Aug 16:17:23 16:20:49 20° 92° (E) 16:24:15 437.345
RS-15 16 Aug 16:27:01 16:37:09 28° 351° (N) 16:47:07 29.354- 29.394
AO-85 16 Aug 16:31:06 16:34:46 27° 245° (WSW) 16:38:38 145.980
BEESAT 3 16 Aug 16:32:16 16:34:43 16° 249° (WSW) 16:37:07 437.485
BEESAT 2 16 Aug 16:32:59 16:36:52 44° 242° (WSW) 16:40:41 435.950
LilacSat-2 16 Aug 16:52:22 16:54:16 14° 64° (ENE) 16:56:10 437.200
CUTE-I 16 Aug 16:58:28 17:02:24 21° 61° (ENE) 17:06:22 437.470
KKS-1 16 Aug 16:59:10 17:02:40 22° 94° (E) 17:06:07 437.445
DOVE 4 16 Aug 17:02:00 17:07:12 59° 73° (ENE) 17:12:22 437.250
XW-2D 16 Aug 17:02:24 17:04:50 17° 66° (ENE) 17:07:17 145.860 - 145.880
AO-7 16 Aug 17:05:00 17:11:08 22° 268° (W) 17:17:20 .
ITAMSAT 1 16 Aug 17:07:40 17:09:41 12° 272° (W) 17:11:42 435.822/435.867
ISS 16 Aug 17:09:34 17:12:37 35° 21° (NNE) 17:15:39 437.550
XW-2B 16 Aug 17:12:49 17:15:39 21° 67° (ENE) 17:18:31 145.730 - 145.750
BEESAT 16 Aug 17:19:51 17:23:28 22° 296° (WNW) 17:27:05 436.000
nSIGHT-1 16 Aug 17:24:24 17:27:32 43° 24° (NNE) 17:30:38 .
YUBILEINY 16 Aug 17:25:03 17:33:44 62° 283° (WNW) 17:42:27 435.215
Tancredo 1 16 Aug 17:25:31 17:28:24 62° 215° (SW) 17:31:15 437.200
NUDT-PHONESAT 16 Aug 17:28:20 17:31:15 23° 68° (ENE) 17:34:11 437.300
XW-2C 16 Aug 17:30:57 17:34:20 33° 71° (ENE) 17:37:46 145.795 - 145.815
XW-2F 16 Aug 17:47:05 17:50:41 49° 74° (ENE) 17:54:19 145.980 - 146.000
MOZHAYETS 4 16 Aug 17:49:27 17:51:33 13° 300° (WNW) 17:53:41
CUTE 1.7 + AOD 2 16 Aug 17:50:51 17:52:37 12° 61° (ENE) 17:54:23 437.475
STARS 16 Aug 17:51:40 17:55:38 33° 97° (E) 17:59:34 437.465
ITUPSAT 1 16 Aug 17:52:08 17:54:02 12° 302° (WNW) 17:55:56 437.325
CUBESAT XI-V 16 Aug 17:53:54 17:58:25 46° 289° (WNW) 18:02:55 437.345
HO-68 16 Aug 18:07:44 18:14:11 38° 62° (ENE) 18:20:37 435.675
KAITUO 1B 16 Aug 18:20:48 18:24:29 77° 257° (WSW) 18:28:14 145.475/437.950
LilacSat-2 16 Aug 18:24:29 18:28:08 48° 261° (W) 18:31:49 437.200
KKS-1 16 Aug 18:35:14 18:39:18 36° 291° (WNW) 18:43:21 437.445
XW-2D 16 Aug 18:35:15 18:38:43 36° 262° (W) 18:42:15 145.860 - 145.880
CUTE-I 16 Aug 18:36:44 18:42:01 58° 259° (W) 18:47:20 437.470
DOVE 4 16 Aug 18:41:27 18:45:12 19° 269° (W) 18:48:56 437.250
RS-15 16 Aug 18:43:37 18:54:34 35° 26° (NNE) 19:05:02 29.354- 29.394
CUBEBUG 2 16 Aug 18:44:12 18:47:40 24° 67° (ENE) 18:51:04 437.445
ISS 16 Aug 18:46:03 18:49:08 40° 219° (SW) 18:52:13 437.550
SEEDS 16 Aug 18:46:13 18:49:50 29° 69° (ENE) 18:53:29 437.485
XW-2B 16 Aug 18:46:25 18:49:40 28° 264° (W) 18:52:59 145.730 - 145.750
UWE-3 16 Aug 18:48:30 18:51:02 16° 64° (ENE) 18:53:34 435.000/436.395/437.385
nSIGHT-1 16 Aug 19:00:59 19:03:49 28° 222° (SW) 19:06:37 .
NUDT-PHONESAT 16 Aug 19:02:00 19:05:02 24° 265° (W) 19:08:06 437.300
XW-2C 16 Aug 19:06:06 19:08:38 17° 267° (W) 19:11:11 145.795 - 145.815
Oscar 11 16 Aug 19:19:17 19:21:19 13° 61° (ENE) 19:23:21 .
CUTE 1.7 + AOD 2 16 Aug 19:23:40 19:27:52 69° 259° (W) 19:32:07 437.475
XW-2F 16 Aug 19:23:42 19:25:07 12° 270° (W) 19:26:32 145.980 - 146.000
STARS 16 Aug 19:28:16 19:31:50 25° 294° (WNW) 19:35:21 437.465
YUBILEINY 16 Aug 19:28:49 19:32:40 13° 307° (NW) 19:36:33 435.215
ZACube-1 16 Aug 19:38:17 19:41:51 28° 69° (ENE) 19:45:25 437.345
STRAND 1 16 Aug 19:41:57 19:46:36 34° 97° (E) 19:51:12 437.568
AAUSAT CUBESAT 2 16 Aug 19:46:10 19:50:15 60° 74° (ENE) 19:54:22 437.432
XW-2A 16 Aug 19:47:13 19:50:30 58° 259° (W) 19:53:48 145.665 - 145.685
HO-68 16 Aug 19:54:56 20:01:44 46° 261° (W) 20:08:36 435.675
AO-73 16 Aug 20:02:03 20:06:01 45° 72° (ENE) 20:09:58 145.935
O/OREOS (USA 219) 16 Aug 20:07:02 20:11:31 58° 64° (ENE) 20:16:00 437.305
CUBEBUG 2 16 Aug 20:20:14 20:24:09 32° 263° (W) 20:27:59 437.445
SEEDS 16 Aug 20:21:59 20:25:29 25° 266° (W) 20:29:01 437.485
UWE-3 16 Aug 20:22:59 20:27:07 50° 260° (W) 20:31:12 435.000/436.395/437.385
Max Valier Satellite 16 Aug 20:51:43 20:54:26 20° 67° (ENE) 20:57:09 145.860
Oscar 11 16 Aug 20:52:38 20:56:54 67° 259° (W) 21:01:12 .
RS-15 16 Aug 20:56:54 21:09:06 83° 55° (NE) 21:20:37 29.354- 29.394
FO-29 16 Aug 21:07:21 21:11:16 19° 88° (E) 21:14:58 435.910
ZACube-1 16 Aug 21:14:38 21:18:07 25° 265° (W) 21:21:35 437.345
STRAND 1 16 Aug 21:21:15 21:25:41 31° 294° (WNW) 21:30:07 437.568
AAUSAT CUBESAT 2 16 Aug 21:24:22 21:26:05 12° 271° (W) 21:27:49 437.432
UNISAT 6 16 Aug 21:35:57 21:37:58 13° 90° (E) 21:40:01 437.425
DELFI C3 16 Aug 21:36:24 21:40:23 87° 257° (WSW) 21:44:25 145.870
AO-73 16 Aug 21:39:57 21:42:29 16° 268° (W) 21:45:02 145.935
O/OREOS (USA 219) 16 Aug 21:47:51 21:50:26 15° 261° (W) 21:53:00 437.305
EO-88 16 Aug 21:55:26 21:59:04 85° 254° (WSW) 22:02:44 145.990 - 145.960
LO-87 16 Aug 22:09:06 22:11:33 18° 67° (ENE) 22:14:01 145.935 - 145.965
TIGRISAT 16 Aug 22:11:06 22:14:49 28° 96° (E) 22:18:34 435.000
Max Valier Satellite 16 Aug 22:24:57 22:28:06 28° 264° (W) 22:31:18 145.860
ESTCUBE 1 16 Aug 22:45:11 22:49:15 34° 69° (ENE) 22:53:21 437.505/2401.250
FO-29 16 Aug 22:51:13 22:57:00 59° 289° (WNW) 23:02:13 435.910
PRISM 16 Aug 23:08:23 23:12:34 88° 288° (WNW) 23:16:41 437.425
RS-15 16 Aug 23:10:42 23:20:08 29° 258° (WSW) 23:29:13 29.354- 29.394
UNISAT 6 16 Aug 23:10:50 23:15:03 59° 287° (WNW) 23:19:18 437.425
VELOX 1 16 Aug 23:14:28 23:17:14 16° 62° (ENE) 23:20:01 145.980
QB50P2 16 Aug 23:25:26 23:26:41 11° 89° (E) 23:27:56 145.880/145.840
EO-79 16 Aug 23:28:09 23:29:07 11° 89° (E) 23:30:05 145.935-145.965
SO-50 16 Aug 23:36:56 23:40:21 21° 113° (ESE) 23:43:47 436.795
PCSat 16 Aug 23:38:08 23:43:22 52° 114° (ESE) 23:48:38 145.827
LO-87 16 Aug 23:41:31 23:44:46 31° 263° (W) 23:48:01 145.935 - 145.965
TIGRISAT 16 Aug 23:47:51 23:51:27 27° 292° (WNW) 23:55:04 435.000
SPROUT 16 Aug 23:56:57 00:01:03 49° 72° (ENE) 00:05:11 437.525
DUCHIFAT 1 17 Aug 00:02:09 00:05:19 21° 94° (E) 00:08:28 145.980
AIST 2D 17 Aug 00:20:05 00:23:38 68° 284° (WNW) 00:27:08 435.315
ESTCUBE 1 17 Aug 00:22:26 00:26:06 24° 266° (W) 00:29:49 437.505/2401.250
M-CUBED/EXP-1 PRIME 17 Aug 00:32:58 00:37:31 86° 288° (WNW) 00:41:45 437.505
NANOSAT C BR1 17 Aug 00:43:45 00:47:56 68° 102° (ESE) 00:52:05 145.865
POLYITAN 1 17 Aug 00:43:52 00:48:04 76° 101° (E) 00:52:16 437.675
VELOX 1 17 Aug 00:48:52 00:53:14 56° 259° (W) 00:57:39 145.980
UKube-1 17 Aug 00:54:23 00:58:17 33° 69° (ENE) 01:02:11 .
QB50P2 17 Aug 00:58:44 01:02:55 67° 285° (WNW) 01:07:05 145.880/145.840
EO-79 17 Aug 01:01:10 01:05:21 69° 285° (WNW) 01:09:31 145.935-145.965
DX 1 17 Aug 01:05:41 01:10:02 67° 74° (ENE) 01:14:24 434.975-435.025
50 SAT 17 Aug 01:15:44 01:19:07 61° 259° (W) 01:22:31 437.505
SO-50 17 Aug 01:16:09 01:20:31 47° 310° (NW) 01:24:53 436.795
PCSat 17 Aug 01:22:23 01:27:01 28° 314° (NW) 01:31:42 145.827
Gurwin Techsat 1B 17 Aug 01:24:36 01:27:31 15° 89° (E) 01:30:26 435.225
SPROUT 17 Aug 01:34:38 01:37:13 16° 269° (W) 01:39:49 437.525
DUCHIFAT 1 17 Aug 01:37:16 01:41:04 35° 290° (WNW) 01:44:52 145.980
YUBILEINY 17 Aug 01:38:38 01:43:37 16° 56° (NE) 01:48:35 435.215
MOZHAYETS 4 17 Aug 01:40:55 01:41:22 10° 58° (ENE) 01:41:50
ITUPSAT 1 17 Aug 01:44:43 01:47:26 15° 60° (ENE) 01:50:08 437.325
BUGSAT 1 17 Aug 01:55:56 01:59:57 77° 285° (WNW) 02:03:57 437.445
M-CUBED/EXP-1 PRIME 17 Aug 02:09:31 02:11:06 12° 308° (NW) 02:12:40 437.505
NANOSAT C BR1 17 Aug 02:21:21 02:23:06 12° 299° (WNW) 02:24:50 145.865
POLYITAN 1 17 Aug 02:21:56 02:23:15 11° 300° (WNW) 02:24:34 437.675
Oscar 19 17 Aug 02:26:18 02:31:32 81° 104° (ESE) 02:36:45 437.125/150
UKube-1 17 Aug 02:30:52 02:34:21 23° 265° (W) 02:37:51 .
DX 1 17 Aug 02:44:54 02:46:39 12° 270° (W) 02:48:24 434.975-435.025
BEESAT 17 Aug 02:48:48 02:53:28 60° 72° (ENE) 02:58:10 436.000
SO-50 17 Aug 03:01:03 03:02:06 11° 332° (NNW) 03:03:08 436.795
Gurwin Techsat 1B 17 Aug 03:02:42 03:08:02 75° 287° (WNW) 03:13:19 435.225
AO-7 17 Aug 03:10:18 03:16:47 24° 93° (E) 03:23:13 .
MOZHAYETS 4 17 Aug 03:13:12 03:17:45 84° 76° (ENE) 03:22:21
ITUPSAT 1 17 Aug 03:19:57 03:24:41 69° 257° (WSW) 03:29:27 437.325
CUBESAT XI-V 17 Aug 03:21:53 03:25:30 23° 65° (ENE) 03:29:08 437.345
NO-84 17 Aug 03:29:32 03:32:23 72° 324° (NW) 03:35:13 435.350 FM
YUBILEINY 17 Aug 03:33:27 03:42:12 73° 80° (E) 03:50:52 435.215
ITAMSAT 1 17 Aug 03:36:21 03:40:42 27° 95° (E) 03:45:02 435.822/435.867
KKS-1 17 Aug 03:58:18 04:01:58 25° 66° (ENE) 04:05:39 437.445
Oscar 19 17 Aug 04:07:17 04:10:11 15° 302° (WNW) 04:13:04 437.125/150
BEESAT 17 Aug 04:28:50 04:31:37 15° 269° (W) 04:34:26 436.000
Gurwin Techsat 1B 17 Aug 04:45:21 04:47:03 11° 305° (NW) 04:48:44 435.225
STARS 17 Aug 04:49:14 04:53:15 35° 69° (ENE) 04:57:15 437.465
CUBESAT XI-V 17 Aug 04:58:15 05:02:37 40° 262° (W) 05:07:03 437.345
DOVE 4 17 Aug 05:01:53 05:04:05 13° 87° (E) 05:06:14 437.250
AO-7 17 Aug 05:01:59 05:10:19 77° 292° (WNW) 05:18:35 .
NO-84 17 Aug 05:08:34 05:10:13 14° 343° (NNW) 05:11:53 435.350 FM
ITAMSAT 1 17 Aug 05:15:28 05:20:17 40° 292° (WNW) 05:25:04 435.822/435.867
YUBILEINY 17 Aug 05:31:30 05:38:07 25° 280° (W) 05:44:43 435.215
KKS-1 17 Aug 05:34:19 05:38:23 33° 263° (W) 05:42:27 437.445
LilacSat-2 17 Aug 05:57:07 05:59:33 16° 92° (E) 06:01:59 437.200
XW-2D 17 Aug 06:06:39 06:09:30 20° 93° (E) 06:12:20 145.860 - 145.880
XW-2B 17 Aug 06:17:16 06:20:29 25° 95° (E) 06:23:40 145.730 - 145.750
BEESAT 3 17 Aug 06:21:10 06:25:06 58° 120° (ESE) 06:29:05 437.485
BEESAT 2 17 Aug 06:25:40 06:28:44 21° 113° (ESE) 06:31:49 435.950
STARS 17 Aug 06:26:07 06:29:38 23° 265° (W) 06:33:10 437.465
NUDT-PHONESAT 17 Aug 06:30:24 06:33:36 26° 96° (E) 06:36:45 437.300
XW-2C 17 Aug 06:35:45 06:39:25 41° 98° (E) 06:43:04 145.795 - 145.815
DOVE 4 17 Aug 06:37:39 06:42:20 64° 286° (WNW) 06:46:43 437.250
PCSat 17 Aug 06:42:46 06:45:15 13° 33° (NNE) 06:47:45 145.827
AO-85 17 Aug 06:46:20 06:50:14 69° 123° (ESE) 06:54:09 145.980
NO-84 17 Aug 06:48:28 06:48:42 10° 5° (N) 06:48:54 435.350 FM
XW-2F 17 Aug 06:51:32 06:55:20 62° 101° (E) 06:59:08 145.980 - 146.000
CUTE-I 17 Aug 06:52:21 06:57:32 51° 100° (E) 07:02:41 437.470
AO-7 17 Aug 06:56:15 07:01:47 20° 313° (NW) 07:07:18 .
STRAND 1 17 Aug 06:58:53 07:03:53 56° 71° (ENE) 07:08:53 437.568
CUTE 1.7 + AOD 2 17 Aug 07:07:54 07:10:58 19° 92° (E) 07:13:59 437.475
HO-68 17 Aug 07:20:57 07:27:21 34° 96° (E) 07:33:40 435.675
FO-29 17 Aug 07:21:27 07:25:32 16° 55° (NE) 07:29:26 435.910
KAITUO 1B 17 Aug 07:24:20 07:28:05 64° 286° (WNW) 07:31:51 145.475/437.950
LilacSat-2 17 Aug 07:30:22 07:34:00 39° 288° (WNW) 07:37:36 437.200
XW-2D 17 Aug 07:40:19 07:43:43 31° 290° (WNW) 07:47:07 145.860 - 145.880
XW-2B 17 Aug 07:51:25 07:54:35 25° 292° (WNW) 07:57:45 145.730 - 145.750
BEESAT 3 17 Aug 08:00:07 08:03:00 19° 319° (NW) 08:05:56 437.485
BEESAT 2 17 Aug 08:02:27 08:06:14 39° 311° (NW) 08:10:05 435.950
SEEDS 17 Aug 08:03:27 08:07:34 46° 99° (E) 08:11:40 437.485
NUDT-PHONESAT 17 Aug 08:04:23 08:07:21 23° 292° (WNW) 08:10:19 437.300
SO-50 17 Aug 08:05:47 08:09:51 31° 45° (NE) 08:13:56 436.795
CUBEBUG 2 17 Aug 08:08:52 08:12:52 42° 99° (E) 08:16:54 437.445
XW-2C 17 Aug 08:10:56 08:13:16 16° 295° (WNW) 08:15:38 145.795 - 145.815
UWE-3 17 Aug 08:11:04 08:14:39 27° 95° (E) 08:18:16 435.000/436.395/437.385
NO-84 17 Aug 08:24:32 08:27:00 22° 26° (NNE) 08:29:35 435.350 FM
PCSat 17 Aug 08:24:33 08:29:55 55° 55° (NE) 08:35:12 145.827
XW-2F 17 Aug 08:27:43 08:28:57 11° 297° (WNW) 08:30:11 145.980 - 146.000
AO-85 17 Aug 08:28:41 08:31:04 15° 322° (NW) 08:33:29 145.980
CUTE-I 17 Aug 08:33:06 08:37:14 24° 298° (WNW) 08:41:21 437.470
UNISAT 6 17 Aug 08:36:13 08:38:38 15° 63° (ENE) 08:41:03 437.425
Oscar 11 17 Aug 08:39:04 08:42:20 20° 93° (E) 08:45:35 .
STRAND 1 17 Aug 08:39:52 08:43:25 19° 268° (W) 08:46:58 437.568
XW-2A 17 Aug 08:40:00 08:43:22 68° 284° (WNW) 08:46:44 145.665 - 145.685
CUTE 1.7 + AOD 2 17 Aug 08:42:55 08:46:57 41° 289° (WNW) 08:50:59 437.475
